Find OAO 1

NORAD ID: 2142 Int'l Des: 1966-031 Owner: GSFC Country: US operational
LEOCIRCULAR

实时位置

正在加载3D地球...

关于 OAO 1

正在加载描述...

即将过境

Passes for default location (London). Set your location on the main map for personalized predictions.

高度历史

Loading altitude history...

两行轨道根数

1 2142U 66031A 26104.84867242 .00000063 00000-0 28781-4 0 9998
2 2142 35.0467 316.5024 0006701 165.9011 194.1864 14.34683175141982
Epoch: Apr 14, 2026 • Age: 8 hours

当前状态

高度 776.3 km
速度 7.47 km/s
星下点 -19.56°S, 99.05°W
类型 other

Most Searched